Tracking 19709 objects as of 18-Jun-2019
HD Live streaming from Space Station
objects crossing your sky now

COSMOS 2253

Track COSMOS 2253 now!
10-day predictions
COSMOS 2253 is classified as:


NORAD ID: 22688
Int'l Code: 1993-038B
Perigee: 1,414.1 km
Apogee: 1,433.5 km
Inclination: 82.6 °
Period: 114.1 minutes
Semi major axis: 7794 km
RCS: 1.0582 m2 (large)
Launch date: June 24, 1993
Source: Commonwealth of Independent States (former USSR) (CIS)
Launch site: PLESETSK MISSILE AND SPACE COMPLEX (PKMTR)
aabbcc
Your satellite tracking list
Your tracking list is empty




NASA's NSSDC Master Catalog

Two Line Element Set (TLE):
1 22688U 93038B   19167.80051416  .00000008  00000-0 -12453-4 0  9996
2 22688  82.5883  85.0090 0012427  40.5408 319.6606 12.61522566196295
Source of the keplerian elements: AFSPC